{"data":{"norad_id":68455,"epoch":"2026-05-24T20:17:35.933856Z","epoch_age_seconds":85413,"freshness":"FRESH","line1":"1 68455U 26067AR  26144.84555479  .00004137  00000+0  21179-3 0  9990","line2":"2 68455  97.4562 103.5898 0007011 131.8294 228.3539 15.17141736  8392","mean_motion":15.17141736,"eccentricity":0.0007011,"inclination_deg":97.4562,"raan_deg":103.5898,"arg_perigee_deg":131.8294,"mean_anomaly_deg":228.3539,"bstar":0.00021179,"rev_number":839,"period_min":94.915324378104,"perigee_km":509.6516665156,"apogee_km":519.31649979841,"semimajor_km":6892.621083157,"source":"CELESTRAK","updated_at":"2026-05-25T13:38:07.843755Z"}}